Regional Weather Roundup
Issued by NWS Sioux Falls, SD

Home | Current Version | Previous Version | Text Only | Print | Product List | Glossary On
Versions: 1 2 3 4 5 6 7 8 9 10 11 12 13 14 15 16 17 18 19 20 21 22 23 24 25 26 27 28 29 30 31 32 33 34 35 36 37 38 39 40 41 42 43 44 45 46 47 48 49 50
000
ASUS43 KFSD 270910
RWRFSD

WEATHER ROUNDUP FOR SE SOUTH DAKOTA/SW MINNESOTA/NW IOWA
NATIONAL WEATHER SERVICE SIOUX FALLS SD
300 AM CST TUE JAN 27 2015

NOTE: "FAIR" INDICATES FEW OR NO CLOUDS BELOW 12,000 FEET WITH NO
SIGNIFICANT WEATHER AND OR OBSTRUCTIONS TO VISIBILITY.


SDZ038>040-050-052>070-271000-
SOUTHEAST SOUTH DAKOTA

CITY           SKY/WX    TMP DP  RH WIND       PRES   REMARKS
CHAMBERLAIN    CLEAR     32  29  90 SE7       30.01S WCI  26
HURON          CLEAR     27  26  96 S5        30.03R WCI  22
MADISON        FAIR      28  28 100 NE5       30.03S WCI  23
MITCHELL       CLEAR     29  28  96 SW6       30.05S WCI  23
SIOUX FALLS    CLEAR     28  26  92 CALM      30.05R
WINNER         FAIR      39  31  72 S9        29.99F
YANKTON        CLEAR     28  25  86 SW6       30.07R WCI  22
$$

MNZ071-072-080-081-089-090-097-098-271000-
SOUTHWEST MINNESOTA

CITY           SKY/WX    TMP DP  RH WIND       PRES   REMARKS
FAIRMONT       CLEAR     30  25  80 NW7       30.05R WCI  23
JACKSON        MOCLDY    32  30  93 N5        30.05R WCI  27
LUVERNE        CLEAR     32  30  93 CALM      30.06S
MARSHALL       CLOUDY    28  27  93 N7        30.08S VSB 1   WCI  21
MONTEVIDEO     CLOUDY    28  28 100 CALM      30.08R
PIPESTONE      CLEAR     30  28  93 CALM      30.04S FOG
REDWOOD FALLS  CLOUDY    31  28  89 CALM      30.06R
TRACY          CLEAR     31  31  98 W3        30.06R FOG
WINDOM         CLOUDY    30  30 100 N5        30.05S WCI  25
WORTHINGTON    CLOUDY    32  28  86 NW8       30.07R WCI  25
$$

IAZ001>003-012>014-020>022-031-032-NEZ013-014-SDZ071-271000-
NORTHWEST IOWA

CITY           SKY/WX    TMP DP  RH WIND       PRES   REMARKS
CHEROKEE       CLEAR     30  30 100 CALM      30.07S
DENISON        CLEAR     32  32 100 NE3       30.05S
ESTHERVILLE    CLEAR     30  29  96 NW6       30.05R WCI  24
LE MARS        CLEAR     30  30 100 CALM      30.08R
ORANGE CITY    CLEAR     34  30  86 N5        30.06S WCI  30
SHELDON        CLEAR     28  28 100 CALM      30.05F
SIOUX CITY     CLEAR     28  27  96 CALM      30.07S FOG
SPENCER        CLOUDY    34  30  85 N9        30.06R WCI  27
STORM LAKE     CLEAR     32  32 100 NW8       30.06S WCI  25
$$

ABBREVIATIONS USED IN REMARKS
   TC - TEMPERATURE IN CELSIUS
  WCI - WIND CHILL INDEX
   HX - HEAT INDEX
  VSB - VISIBILITY



USA.gov is the U.S. government's official web portal to all federal, state and local government web resources and services.